Weather History for La Junta, CO

Change the Weather History Date:

Thursday, December 11, 2014

  Actual Average Record
Temperature  
Mean Temperature 42 °F 31 °F  
Max Temperature 62 °F 44 °F 78 °F (2004)
Min Temperature 22 °F 18 °F -11 °F (1961)
Degree Days  
Heating Degree Days 23 34  
Month to date heating degree days 289 361  
Since 1 July heating degree days 1360 1506  
Cooling Degree Days 0 0  
Month to date cooling degree days 0 0  
Year to date cooling degree days 1369 1226  
Moisture  
Dew Point 18 °F    
Average Humidity 44    
Maximum Humidity 68    
Minimum Humidity 19    
Precipitation  
Precipitation 0.00 in 0.00 in 0.23 in (1991)
Month to date precipitation 0.00 0.09  
Year to date precipitation 13.43 11.29  
Sea Level Pressure  
Sea Level Pressure 30.06 in    
Wind  
Wind Speed 7 mph (NNW)    
Max Wind Speed 13 mph    
Max Gust Speed 14 mph    
Visibility 7 miles    
Events      
T = Trace of Precipitation, MM = Missing Value Source: NWS Daily Summary

Daily Weather History Graph

Daily Weather History Graph

Search for Another Location

Airport:

Trip Planner

Search our weather history database for the weather conditions in past years. The results will help you decide how hot, cold, wet, or windy it might be!

Date:

Astronomy

Dec. 11, 2014 Rise Set
Actual Time 7:00 AM MST 4:34 PM MST
Civil Twilight 6:30 AM MST 5:04 PM MST
Nautical Twilight 5:57 AM MST 5:36 PM MST
Astronomical Twilight 5:25 AM MST 6:08 PM MST
Moon 9:43 PM MST (12/11) 10:28 AM MST (12/11)
Length of Visible Light 10h 33m
Length of Day
9h 34m
Waning Gibbous, 75% of the Moon is Illuminated
Dec 11
Waning Gibbous
Dec 14
Last Quarter
Dec 21
New
Dec 28
First Quarter
Jan 4
Full

Hourly Weather History & Observations

Time (MST) Temp. Windchill Dew Point Humidity Pressure Visibility Wind Dir Wind Speed Gust Speed Precip Events Conditions
12:53 AM 28.9 °F 19.8 °F 17.1 °F 61% 30.07 in 10.0 mi West 10.4 mph - N/A   Clear
1:53 AM 30.0 °F 22.4 °F 16.0 °F 56% 30.06 in 10.0 mi WSW 8.1 mph - N/A   Clear
2:53 AM 24.1 °F 16.0 °F 15.1 °F 69% 30.07 in 10.0 mi WSW 6.9 mph - N/A   Clear
3:53 AM 26.1 °F - 15.1 °F 63% 30.06 in 10.0 mi Calm Calm - N/A   Clear
4:53 AM 24.1 °F 16.0 °F 15.1 °F 69% 30.09 in 10.0 mi WSW 6.9 mph - N/A   Clear
5:53 AM 30.0 °F 20.5 °F 15.1 °F 54% 30.08 in 10.0 mi WSW 11.5 mph - N/A   Clear
6:53 AM 26.1 °F 18.4 °F 14.0 °F 60% 30.10 in 10.0 mi WSW 6.9 mph - N/A   Clear
7:53 AM 30.9 °F 22.8 °F 15.1 °F 52% 30.13 in 10.0 mi West 9.2 mph - N/A   Clear
8:53 AM 35.1 °F 27.4 °F 16.0 °F 46% 30.16 in 10.0 mi WNW 10.4 mph - N/A   Clear
9:53 AM 42.1 °F 36.6 °F 16.0 °F 35% 30.12 in 10.0 mi WNW 9.2 mph - N/A   Clear
10:53 AM 48.9 °F - 14.0 °F 25% 30.08 in 10.0 mi Variable 3.5 mph - N/A   Clear
11:53 AM 54.0 °F - 17.1 °F 23% 30.04 in 10.0 mi South 4.6 mph - N/A   Clear
12:53 PM 57.0 °F - 18.0 °F 22% 30.00 in 10.0 mi SSW 6.9 mph - N/A   Clear
1:53 PM 60.1 °F - 19.9 °F 21% 29.96 in 10.0 mi Calm Calm - N/A   Clear
2:53 PM 62.1 °F - 19.9 °F 20% 29.98 in 10.0 mi East 5.8 mph - N/A   Clear
3:53 PM 57.9 °F - 19.9 °F 23% 29.99 in 10.0 mi East 5.8 mph - N/A   Clear
4:53 PM 50.0 °F - 19.9 °F 31% 30.02 in 10.0 mi ENE 4.6 mph - N/A   Clear
5:46 PM 48.0 °F - 19.0 °F 32% 30.03 in 2.5 mi NE 6.9 mph - N/A   Haze
5:53 PM 50.0 °F - 19.0 °F 29% 30.02 in 1.2 mi NE 6.9 mph - N/A   Haze
6:12 PM 48.0 °F - 19.0 °F 32% 30.03 in 1.5 mi NE 6.9 mph - N/A   Haze
6:33 PM 46.0 °F 43.1 °F 19.0 °F 34% 30.04 in 3.0 mi NNE 5.8 mph - N/A   Haze
6:40 PM 46.0 °F 41.9 °F 19.0 °F 34% 30.04 in 4.0 mi NNE 8.1 mph - N/A   Haze
6:53 PM 43.0 °F 37.7 °F 19.0 °F 38% 30.06 in 4.0 mi NNE 9.2 mph - N/A   Haze
7:26 PM 41.0 °F 36.4 °F 21.0 °F 45% 30.04 in 1.5 mi NNE 6.9 mph - N/A   Haze
7:34 PM 41.0 °F 36.4 °F 21.0 °F 45% 30.04 in 1.0 mi NNE 6.9 mph - N/A   Haze
7:43 PM 37.9 °F 32.7 °F 19.9 °F 48% 30.04 in 2.0 mi North 6.9 mph - N/A   Haze
7:53 PM 37.9 °F 32.1 °F 21.0 °F 51% 30.06 in 2.0 mi North 8.1 mph - N/A   Haze
8:05 PM 39.0 °F 34.0 °F 21.9 °F 50% 30.05 in 3.0 mi North 6.9 mph - N/A   Haze
8:44 PM 32.0 °F 27.5 °F 19.9 °F 61% 30.06 in 2.5 mi North 4.6 mph - N/A   Haze
8:51 PM 33.8 °F 29.6 °F 19.4 °F 56% 30.06 in 10.0 mi NNW 4.6 mph - N/A   Partly Cloudy
8:53 PM 33.1 °F 28.7 °F 19.9 °F 59% 30.09 in 10.0 mi NNW 4.6 mph - N/A   Partly Cloudy
9:53 PM 30.9 °F 24.3 °F 19.9 °F 64% 30.07 in 10.0 mi North 6.9 mph - N/A   Clear
10:53 PM 30.0 °F 24.1 °F 19.9 °F 66% 30.08 in 10.0 mi NNW 5.8 mph - N/A   Clear
11:53 PM 25.0 °F 19.3 °F 18.0 °F 75% 30.08 in 10.0 mi WNW 4.6 mph - N/A   Clear